Overview Statistics Trail Chart Weather Telemetry Raw packets
 

This is the latest recevied weather packets stored in our database for station/object VE8SKI. If no packets are shown the sender has not sent any weather packets the latest 10 day(s).

<< 64 65 66 67 68 69 70 >>
Time Temp. Humidity Pressure Rain* Wind** Luminosity Snow
1777660877 5.56° C 76% 1008.7 hPa 0 mm 5.36 m/s, 10° - -
1777660578 5.56° C 75% 1008.7 hPa 0 mm 4.47 m/s, 17° - -
1777660278 6.11° C 74% 1008.6 hPa 0 mm 4.02 m/s, 356° - -
1777659979 5.56° C 76% 1008.6 hPa 0 mm 3.58 m/s, 359° - -
1777659677 5.56° C 77% 1008.6 hPa 0 mm 4.47 m/s, 11° - -
1777659377 5.56° C 77% 1008.6 hPa 0 mm 4.02 m/s, 359° - -
1777659078 5.56° C 77% 1008.5 hPa 0 mm 5.36 m/s, 11° - -
1777658778 5.56° C 77% 1008.4 hPa 0 mm 3.13 m/s, 18° - -
1777658479 5° C 78% 1008.4 hPa 0 mm 4.47 m/s, 30° - -
1777658179 5.56° C 78% 1008.3 hPa 0 mm 4.02 m/s, 1° - -
1777657877 5.56° C 77% 1008.2 hPa 0 mm 4.92 m/s, 359° - -
1777657577 5.56° C 77% 1008.2 hPa 0 mm 4.02 m/s, 17° - -
1777657278 5.56° C 76% 1008.1 hPa 0 mm 5.36 m/s, 3° - -
1777656978 5° C 77% 1008.1 hPa 0 mm 4.47 m/s, 23° - -
1777656679 5° C 78% 1008.1 hPa 0 mm 4.47 m/s, 15° - -
1777656379 4.44° C 79% 1008.2 hPa 0 mm 4.47 m/s, 8° - -
1777656077 4.44° C 80% 1008.2 hPa 0 mm 4.47 m/s, 17° - -
1777655777 4.44° C 80% 1008.2 hPa 0 mm 2.68 m/s, 14° - -
1777655478 4.44° C 80% 1008.2 hPa 0 mm 3.13 m/s, 13° - -
1777655189 4.44° C 80% 1008.2 hPa 0 mm 5.36 m/s, 1° - -
1777654879 4.44° C 79% 1008 hPa 0 mm 4.47 m/s, 15° - -
1777654579 4.44° C 79% 1008 hPa 0 mm 2.68 m/s, 359° - -
1777654277 4.44° C 79% 1008 hPa 0 mm 2.68 m/s, 37° - -
1777653977 4.44° C 78% 1008 hPa 0 mm 4.02 m/s, 4° - -
1777653678 4.44° C 80% 1008 hPa 0 mm 3.13 m/s, 359° - -

* Rain latest hour (hover to see other rain measurements)
** Current wind speed in m/s (hover to see current wind gust speed)